N3UJJ-1 Lothian MD US current weather conditions

sailwx.info

Wind from 289

Air temperature 0.6° C
Dewpoint -2.5° C

Last reported at 2019-Dec-06 02:53 UTC.
Time now 2019-Dec-06 03:52 UTC

Location: N 38°48' W 076°41'.
View on Google Maps.

See reports from other nearby stations

  
Tides and Currents Weather Stations Pressure Air Temp Water Temp Dewpoint Dewpoint Depression Visibility Wind Speed Wind Dir Waves Ship Positions
date/time (UTC)wind fromknots sea level pressurealtimeterstation pressurevisibilityair tempwater tempwave heightnotes
2019-Dec-06 03:33 289 0.6
2019-Dec-06 03:28 289 0.6
2019-Dec-06 03:23 289 0.6
2019-Dec-06 03:18 289 0.6
2019-Dec-06 03:13 289 0.6
2019-Dec-06 03:08 289 0.6
2019-Dec-06 03:03 289 0.6
2019-Dec-06 02:58 289 0.6
2019-Dec-06 02:53 289 0.6
2019-Dec-06 02:48 289 0.6
2019-Dec-06 02:43 289 0.6
2019-Dec-06 02:38 289 0.6
2019-Dec-06 02:33 289 0.6
2019-Dec-06 02:28 289 0.6
2019-Dec-06 02:23 289 0.6
2019-Dec-06 02:18 289 0.6
2019-Dec-06 02:13 288 0.6
2019-Dec-06 02:08 289 0.6
2019-Dec-06 02:03 289 1.1
2019-Dec-06 01:58 289 1.1
2019-Dec-06 01:53 289 1.1
2019-Dec-06 01:48 289 1.1
2019-Dec-06 01:43 289 1.1
2019-Dec-06 01:38 289 1.1
2019-Dec-06 01:33 289 1.1
2019-Dec-06 01:28 289 1.7
2019-Dec-06 01:24 289 1.7
2019-Dec-06 01:18 289 1.7
2019-Dec-06 01:13 289 1.7
2019-Dec-06 01:09 289 1.7
2019-Dec-06 01:03 288 2.2
2019-Dec-06 00:58 289 2.2
2019-Dec-06 00:54 288 2.2
2019-Dec-06 00:48 289 2.2
2019-Dec-06 00:43 289 2.2
2019-Dec-06 00:38 289 2.8
2019-Dec-06 00:33 289 2.8
2019-Dec-06 00:28 289 2.8
2019-Dec-06 00:23 289 2.8
2019-Dec-06 00:18 289 3.3
2019-Dec-06 00:13 289 3.3
2019-Dec-06 00:08 289 3.3
2019-Dec-06 00:03 289 3.3
2019-Dec-05 23:58 289 3.3
2019-Dec-05 23:53 289 3.3
2019-Dec-05 23:48 289 3.3
2019-Dec-05 23:43 289 3.3
2019-Dec-05 23:38 289 3.3
2019-Dec-05 23:33 289 3.3
2019-Dec-05 23:28 289 3.3
2019-Dec-05 23:23 289 3.9
2019-Dec-05 23:18 289 3.9
2019-Dec-05 23:13 289 3.9
2019-Dec-05 23:08 289 3.9
2019-Dec-05 23:03 289 4.4
2019-Dec-05 22:58 289 4.4
2019-Dec-05 22:53 289 4.4
2019-Dec-05 22:48 289 4.4
2019-Dec-05 22:43 289 4.4
2019-Dec-05 22:38 289 4.4
2019-Dec-05 22:33 289 5.0
2019-Dec-05 22:28 288 5.0
2019-Dec-05 22:23 288 5.0
2019-Dec-05 22:18 289 5.0
2019-Dec-05 22:13 289 5.0
2019-Dec-05 22:08 289 5.0
2019-Dec-05 22:03 289 5.6
2019-Dec-05 21:58 288 5.6
2019-Dec-05 21:53 289 5.6
2019-Dec-05 21:48 288 6.1
2019-Dec-05 21:43 289 6.1
2019-Dec-05 21:38 289 6.1
2019-Dec-05 21:33 288 6.7
2019-Dec-05 21:28 288 6.7
2019-Dec-05 21:23 289 6.7
2019-Dec-05 21:18 308 6.7
2019-Dec-05 21:13 308 6.7
2019-Dec-05 21:08 314 6.7
2019-Dec-05 21:04 309 7.2
2019-Dec-05 20:58 290 7.2
2019-Dec-05 20:53 290 0 gusting 5 7.2
2019-Dec-05 20:49 298 7.2
2019-Dec-05 20:43 298 0 gusting 4 7.2
2019-Dec-05 20:38 288 0 gusting 3 7.2
2019-Dec-05 20:33 287 7.2
2019-Dec-05 20:28 287 7.2
2019-Dec-05 20:23 273 7.8
2019-Dec-05 20:18 311 7.8
2019-Dec-05 20:13 289 7.8
2019-Dec-05 20:08 289 7.8
2019-Dec-05 20:03 289 7.8
2019-Dec-05 19:58 289 0 gusting 6 7.8
2019-Dec-05 19:53 292 1 gusting 6 7.8
2019-Dec-05 19:48 229 7.8
2019-Dec-05 19:43 305 7.8
2019-Dec-05 19:38 315 7.8
2019-Dec-05 19:33 288 7.8
2019-Dec-05 19:28 281 7.8
2019-Dec-05 19:23 319 0 gusting 4 8.3
2019-Dec-05 19:18 277 0 gusting 4 7.8
2019-Dec-05 19:13 282 7.8
2019-Dec-05 19:08 284 7.8
2019-Dec-05 19:03 284 7.8
2019-Dec-05 18:58 288 0 gusting 6 7.8
2019-Dec-05 18:53 282 1 gusting 6 7.8
2019-Dec-05 18:48 286 0 gusting 5 7.8
2019-Dec-05 18:43 306 0 gusting 5 7.8
2019-Dec-05 18:38 294 0 gusting 4 7.8
2019-Dec-05 18:33 286 7.8
2019-Dec-05 18:28 343 1 gusting 4 7.8
2019-Dec-05 18:23 313 7.8
2019-Dec-05 18:18 315 7.8
2019-Dec-05 18:13 317 8.3
2019-Dec-05 18:08 275 8.3
2019-Dec-05 18:03 275 1 gusting 6 8.3
2019-Dec-05 17:58 285 8.3
2019-Dec-05 17:53 284 0 gusting 4 8.3
2019-Dec-05 17:48 311 8.3
2019-Dec-05 17:43 342 8.3
2019-Dec-05 17:38 307 0 gusting 4 8.3
2019-Dec-05 17:33 292 8.3
2019-Dec-05 17:28 339 7.8
2019-Dec-05 17:23 339 7.8
2019-Dec-05 17:18 338 7.8
2019-Dec-05 17:13 300 7.8
2019-Dec-05 17:08 290 0 gusting 5 7.8
2019-Dec-05 17:03 284 7.8
2019-Dec-05 16:58 281 7.8
2019-Dec-05 16:53 280 1 gusting 5 7.8
2019-Dec-05 16:48 355 0 gusting 5 7.8
2019-Dec-05 16:44 311 7.8
2019-Dec-05 16:38 309 0 gusting 2 7.8
2019-Dec-05 16:33 076 7.8
2019-Dec-05 16:29 076 2 gusting 6 7.8
2019-Dec-05 16:23 284 7.8
2019-Dec-05 16:18 284 7.8
2019-Dec-05 16:14 284 8.3
2019-Dec-05 16:08 288 0 gusting 4 8.3
2019-Dec-05 16:03 328 0 gusting 6 8.3
2019-Dec-05 15:59 329 7.8
2019-Dec-05 15:53 282 1 gusting 5 7.8
2019-Dec-05 15:48 320 7.2
2019-Dec-05 15:44 290 7.2
2019-Dec-05 15:38 301 6.7
2019-Dec-05 15:33 303 6.7
2019-Dec-05 15:29 304 6.7
2019-Dec-05 15:23 309 6.7
2019-Dec-05 15:18 071 6.7
2019-Dec-05 15:13 302 6.7
2019-Dec-05 15:08 305 0 gusting 5 6.7
2019-Dec-05 15:03 291 0 gusting 3 7.2
2019-Dec-05 14:58 291 7.2
2019-Dec-05 14:53 291 7.2
2019-Dec-05 14:48 291 1 gusting 6 7.8
2019-Dec-05 14:43 341 7.8
2019-Dec-05 14:38 342 7.8
2019-Dec-05 14:33 341 7.8
2019-Dec-05 14:28 341 7.8
2019-Dec-05 14:23 341 7.2
2019-Dec-05 14:18 341 7.2
2019-Dec-05 14:13 341 7.2
2019-Dec-05 14:08 341 7.2
2019-Dec-05 14:03 344 6.7
2019-Dec-05 13:58 344 6.7
2019-Dec-05 13:53 344 6.1
2019-Dec-05 13:48 344 6.1
2019-Dec-05 13:43 344 5.6
2019-Dec-05 13:38 344 5.6
2019-Dec-05 13:33 344 5.6
2019-Dec-05 13:28 344 5.0
2019-Dec-05 13:23 344 5.0
2019-Dec-05 13:18 344 4.4
2019-Dec-05 13:13 344 3.9
2019-Dec-05 13:08 344 3.9
2019-Dec-05 13:03 344 3.9
2019-Dec-05 12:58 344 3.3
2019-Dec-05 12:54 344 3.3
2019-Dec-05 12:48 344 3.3
2019-Dec-05 12:43 344 3.3
2019-Dec-05 12:39 344 3.3
2019-Dec-05 12:33 344 3.3
2019-Dec-05 12:28 344 3.3
2019-Dec-05 12:24 344 3.3
2019-Dec-05 12:18 344 3.9
2019-Dec-05 12:13 344 3.9
2019-Dec-05 12:08 344 3.9
2019-Dec-05 12:03 344 3.9
2019-Dec-05 11:58 344 3.9
2019-Dec-05 11:53 344 4.4
2019-Dec-05 11:48 344 0 gusting 3 4.4
2019-Dec-05 11:43 345 4.4
2019-Dec-05 11:38 347 4.4
2019-Dec-05 11:33 348 0 gusting 4 4.4
2019-Dec-05 11:28 308 4.4
2019-Dec-05 11:23 317 4.4
2019-Dec-05 11:18 317 4.4
2019-Dec-05 11:13 317 4.4
2019-Dec-05 11:08 317 3.9
2019-Dec-05 11:03 317 3.9
2019-Dec-05 10:58 317 3.9
2019-Dec-05 10:53 317 3.9
2019-Dec-05 10:48 317 3.9
2019-Dec-05 10:43 317 3.9
2019-Dec-05 10:38 317 3.9
2019-Dec-05 10:33 317 3.9
2019-Dec-05 10:28 318 3.9
2019-Dec-05 10:23 318 3.9
2019-Dec-05 10:18 318 3.9
2019-Dec-05 10:13 318 3.9
2019-Dec-05 10:08 360 3.9
2019-Dec-05 10:03 360 3.9
2019-Dec-05 09:58 360 3.3
2019-Dec-05 09:53 360 3.3
2019-Dec-05 09:48 360 3.3
2019-Dec-05 09:43 360 3.3
2019-Dec-05 09:38 360 3.3
2019-Dec-05 09:33 360 2.8
2019-Dec-05 09:28 360 2.8
2019-Dec-05 09:23 360 2.8
2019-Dec-05 09:18 360 2.8
2019-Dec-05 09:13 360 2.8
2019-Dec-05 09:08 360 2.8
2019-Dec-05 09:03 360 3.3
2019-Dec-05 08:58 360 3.3
2019-Dec-05 08:53 360 3.3
2019-Dec-05 08:48 360 3.3
2019-Dec-05 08:43 360 3.3
2019-Dec-05 08:38 360 3.3
2019-Dec-05 08:33 360 3.3
2019-Dec-05 08:28 360 3.3
2019-Dec-05 08:23 360 3.3
2019-Dec-05 08:18 360 3.9
2019-Dec-05 08:13 360 3.9
2019-Dec-05 08:08 360 3.9
2019-Dec-05 08:03 360 3.9
2019-Dec-05 07:58 360 3.9
2019-Dec-05 07:53 360 3.9
2019-Dec-05 07:48 360 3.9
2019-Dec-05 07:43 360 3.9
2019-Dec-05 07:38 360 3.9
2019-Dec-05 07:33 360 3.9
2019-Dec-05 07:28 360 3.3
2019-Dec-05 07:23 140 3.3
2019-Dec-05 07:18 140 3.3
2019-Dec-05 07:13 140 2.8
2019-Dec-05 07:08 140 2.8
2019-Dec-05 07:03 140 2.8
2019-Dec-05 06:58 140 2.8
2019-Dec-05 06:53 140 2.8
2019-Dec-05 06:48 140 2.8
2019-Dec-05 06:43 140 2.8
2019-Dec-05 06:38 140 2.8
2019-Dec-05 06:33 140 2.8
2019-Dec-05 06:28 140 3.3
2019-Dec-05 06:23 140 3.3
2019-Dec-05 06:18 140 3.3
2019-Dec-05 06:13 140 2.8
2019-Dec-05 06:08 140 2.8
2019-Dec-05 06:03 140 2.8
2019-Dec-05 05:58 140 3.3
2019-Dec-05 05:53 140 3.3
2019-Dec-05 05:48 140 3.3
2019-Dec-05 05:43 140 3.3
2019-Dec-05 05:38 140 3.3
2019-Dec-05 05:33 140 3.3
2019-Dec-05 05:28 140 3.3
2019-Dec-05 05:23 140 3.3
2019-Dec-05 05:18 140 3.3
2019-Dec-05 05:13 140 3.3
2019-Dec-05 05:08 140 3.3
2019-Dec-05 05:03 140 2.8
2019-Dec-05 04:58 140 2.8
2019-Dec-05 04:53 140 2.8
2019-Dec-05 04:48 140 2.8
2019-Dec-05 04:43 140 2.8
2019-Dec-05 04:38 140 2.8
2019-Dec-05 04:33 140 2.8
2019-Dec-05 04:28 140 2.8
2019-Dec-05 04:23 140 2.8
2019-Dec-05 04:18 140 2.8
2019-Dec-05 04:13 140 2.2
2019-Dec-05 04:08 140 2.2
2019-Dec-05 04:03 140 2.2
2019-Dec-05 03:58 140 2.2
2019-Dec-05 03:53 140 2.2
2019-Dec-05 03:48 140 2.2
2019-Dec-05 03:44 140 2.2
2019-Dec-05 03:38 140 2.2
2019-Dec-05 03:33 140 2.2
2019-Dec-05 03:29 140 2.2
2019-Dec-05 03:23 140 2.2
2019-Dec-05 03:18 140 2.2
2019-Dec-05 03:13 140 2.2
2019-Dec-05 03:08 140 2.2
2019-Dec-05 03:03 140 2.2
2019-Dec-05 02:58 140 2.8
2019-Dec-05 02:53 140 2.8
2019-Dec-05 02:48 140 2.8
2019-Dec-05 02:43 140 2.8
2019-Dec-05 02:38 140 2.8
2019-Dec-05 02:33 140 2.8
2019-Dec-05 02:28 140 2.8
2019-Dec-05 02:23 140 2.8
2019-Dec-05 02:18 140 2.8
2019-Dec-05 02:13 140 3.3
2019-Dec-05 02:08 140 3.3
2019-Dec-05 02:03 140 3.3
2019-Dec-05 01:58 140 3.3
2019-Dec-05 01:53 140 3.3
2019-Dec-05 01:48 140 3.3
2019-Dec-05 01:43 140 3.3
2019-Dec-05 01:38 140 3.3
2019-Dec-05 01:33 140 3.9
2019-Dec-05 01:28 140 3.9
2019-Dec-05 01:23 140 3.9
2019-Dec-05 01:18 140 3.9
2019-Dec-05 01:13 140 3.9
2019-Dec-05 01:08 140 3.9
2019-Dec-05 01:03 140 4.4
2019-Dec-05 00:58 140 4.4
2019-Dec-05 00:53 140 4.4
2019-Dec-05 00:48 140 4.4
2019-Dec-05 00:43 140 4.4
2019-Dec-05 00:39 140 4.4
2019-Dec-05 00:33 140 4.4
2019-Dec-05 00:28 140 4.4
2019-Dec-05 00:24 140 4.4
2019-Dec-05 00:18 140 4.4
2019-Dec-05 00:13 140 4.4
2019-Dec-05 00:08 140 4.4
2019-Dec-05 00:03 140 4.4
2019-Dec-04 23:58 140 4.4
2019-Dec-04 23:53 140 5.0
2019-Dec-04 23:48 140 5.0
2019-Dec-04 23:43 140 5.0
2019-Dec-04 23:38 140 5.0
2019-Dec-04 23:33 140 5.0
2019-Dec-04 23:28 140 5.0
2019-Dec-04 23:23 140 5.6
2019-Dec-04 23:18 140 5.6
2019-Dec-04 23:13 140 5.6
2019-Dec-04 23:08 140 5.6
2019-Dec-04 23:03 140 6.1
2019-Dec-04 22:58 140 6.1
2019-Dec-04 22:53 140 6.1
2019-Dec-04 22:48 140 6.1
2019-Dec-04 22:43 140 6.7
2019-Dec-04 22:38 140 6.7
2019-Dec-04 22:33 140 6.7
2019-Dec-04 22:28 140 6.7
2019-Dec-04 22:23 140 7.2
2019-Dec-04 22:18 140 0 gusting 4 7.2
2019-Dec-04 22:13 163 7.2
2019-Dec-04 22:08 163 7.2
2019-Dec-04 22:03 163 7.2
2019-Dec-04 21:58 163 7.8
2019-Dec-04 21:53 163 7.8
2019-Dec-04 21:48 163 7.8
2019-Dec-04 21:43 163 7.8
2019-Dec-04 21:38 163 8.3
2019-Dec-04 21:33 163 8.3
2019-Dec-04 21:28 163 8.3
2019-Dec-04 21:23 163 8.9
2019-Dec-04 21:18 163 8.9
2019-Dec-04 21:13 163 8.9
2019-Dec-04 21:08 163 8.9
2019-Dec-04 21:03 163 8.9
2019-Dec-04 20:58 163 9.4
2019-Dec-04 20:53 163 9.4
2019-Dec-04 20:48 163 9.4
2019-Dec-04 20:43 163 9.4
2019-Dec-04 20:38 163 9.4
2019-Dec-04 20:33 163 9.4
2019-Dec-04 20:28 163 9.4
2019-Dec-04 20:23 163 9.4
2019-Dec-04 20:19 163 9.4
2019-Dec-04 20:13 163 0 gusting 4 9.4
2019-Dec-04 20:08 163 9.4
2019-Dec-04 20:04 163 9.4
2019-Dec-04 19:58 169 9.4
2019-Dec-04 19:53 169 9.4
2019-Dec-04 19:48 169 9.4
2019-Dec-04 19:43 169 9.4
2019-Dec-04 19:38 169 9.4
2019-Dec-04 19:33 169 9.4
2019-Dec-04 19:28 168 9.4
2019-Dec-04 19:23 166 9.4
2019-Dec-04 19:18 166 9.4
2019-Dec-04 19:13 167 9.4
2019-Dec-04 19:08 167 9.4
2019-Dec-04 19:03 167 9.4
2019-Dec-04 18:58 164 9.4
2019-Dec-04 18:53 164 9.4
2019-Dec-04 18:48 165 0 gusting 3 9.4
2019-Dec-04 18:43 335 8.9
2019-Dec-04 18:38 157 8.9
2019-Dec-04 18:33 156 0 gusting 6 8.9
2019-Dec-04 18:28 161 8.9
2019-Dec-04 18:23 167 8.9
2019-Dec-04 18:18 167 8.9
2019-Dec-04 18:13 167 8.9
2019-Dec-04 18:08 244 0 gusting 7 8.9
2019-Dec-04 18:03 146 1 gusting 7 8.9
2019-Dec-04 17:58 149 0 gusting 4 8.9
2019-Dec-04 17:53 157 9.4
2019-Dec-04 17:48 177 8.9
2019-Dec-04 17:43 101 8.9
2019-Dec-04 17:38 099 8.9
2019-Dec-04 17:33 295 8.3
2019-Dec-04 17:28 295 1 gusting 6 7.8
2019-Dec-04 17:23 126 3 gusting 9 8.3
2019-Dec-04 17:18 157 2 gusting 9 8.3
2019-Dec-04 17:13 171 8.3
2019-Dec-04 17:08 150 7.8
2019-Dec-04 17:03 142 7.8
2019-Dec-04 16:58 142 7.8
2019-Dec-04 16:53 142 7.2
2019-Dec-04 16:48 142 7.2
2019-Dec-04 16:43 142 7.2
2019-Dec-04 16:38 142 7.2
2019-Dec-04 16:33 142 0 gusting 3 6.7
2019-Dec-04 16:28 142 6.7
2019-Dec-04 16:23 142 0 gusting 3 6.7
2019-Dec-04 16:18 142 6.7
2019-Dec-04 16:13 141 1 gusting 5 6.7
2019-Dec-04 16:08 142 6.7
2019-Dec-04 16:03 142 0 gusting 3 6.1
2019-Dec-04 15:58 142 6.1
2019-Dec-04 15:53 142 6.1
2019-Dec-04 15:48 142 5.6
2019-Dec-04 15:44 142 5.6
2019-Dec-04 15:38 157 5.6
2019-Dec-04 15:33 157 5.6
2019-Dec-04 15:29 157 5.6
2019-Dec-04 15:23 163 5.0
2019-Dec-04 15:18 163 5.0
2019-Dec-04 15:14 163 5.0
2019-Dec-04 15:08 163 5.0
2019-Dec-04 15:03 163 5.0
2019-Dec-04 14:59 163 5.0
2019-Dec-04 14:53 163 4.4
2019-Dec-04 14:48 163 4.4
2019-Dec-04 14:44 163 4.4
2019-Dec-04 14:38 163 4.4
2019-Dec-04 14:33 163 4.4
2019-Dec-04 14:28 308 4.4
2019-Dec-04 14:23 308 4.4
2019-Dec-04 14:18 308 3.9
2019-Dec-04 14:13 308 3.9
2019-Dec-04 14:08 308 3.9
2019-Dec-04 14:03 308 3.9
2019-Dec-04 13:58 308 3.9
2019-Dec-04 13:53 308 3.3
2019-Dec-04 13:48 308 3.3
2019-Dec-04 13:43 308 3.3
2019-Dec-04 13:38 308 3.3
2019-Dec-04 13:33 308 2.8
2019-Dec-04 13:28 308 2.8
2019-Dec-04 13:23 308 2.8
2019-Dec-04 13:18 308 2.8
2019-Dec-04 13:14 308 2.8
2019-Dec-04 13:08 308 2.8
2019-Dec-04 13:03 308 2.2
2019-Dec-04 12:58 311 2.2
2019-Dec-04 12:53 311 1.7
2019-Dec-04 12:48 311 1.7
2019-Dec-04 12:43 311 1.7
2019-Dec-04 12:38 311 1.7
2019-Dec-04 12:33 311 1.7
2019-Dec-04 12:28 311 1.7
2019-Dec-04 12:23 311 2.2
2019-Dec-04 12:18 311 2.2
2019-Dec-04 12:13 311 2.2
2019-Dec-04 12:08 311 2.2
2019-Dec-04 12:03 311 2.2
2019-Dec-04 11:58 311 2.2
2019-Dec-04 11:53 311 2.2
2019-Dec-04 11:48 311 2.8
2019-Dec-04 11:43 311 2.8
2019-Dec-04 11:38 311 2.8
2019-Dec-04 11:33 311 2.8
2019-Dec-04 11:28 311 2.8
2019-Dec-04 11:23 311 2.8
2019-Dec-04 11:18 311 2.8
2019-Dec-04 11:13 311 2.8
2019-Dec-04 11:08 311 2.8
2019-Dec-04 11:03 311 2.8
2019-Dec-04 10:58 311 2.8
2019-Dec-04 10:54 311 2.8
2019-Dec-04 10:48 311 2.8
2019-Dec-04 10:43 311 2.8
2019-Dec-04 10:39 311 2.8
2019-Dec-04 10:33 311 2.8
2019-Dec-04 10:28 311 2.8
2019-Dec-04 10:24 311 2.8
2019-Dec-04 10:18 311 2.8
2019-Dec-04 10:13 311 2.8
2019-Dec-04 10:09 311 2.8
2019-Dec-04 09:58 311 2.8
2019-Dec-04 09:53 311 2.8
2019-Dec-04 09:48 311 2.8
2019-Dec-04 09:43 311 2.8
2019-Dec-04 09:38 311 2.8
2019-Dec-04 09:33 311 2.8
2019-Dec-04 09:28 311 2.8
2019-Dec-04 09:23 311 2.8
2019-Dec-04 09:18 311 2.8
2019-Dec-04 09:13 311 2.8
2019-Dec-04 09:08 311 2.8
2019-Dec-04 09:03 311 2.8
2019-Dec-04 08:58 311 2.8
2019-Dec-04 08:53 311 2.8
2019-Dec-04 08:48 311 2.8
2019-Dec-04 08:43 311 2.8
2019-Dec-04 08:38 311 2.8
2019-Dec-04 08:33 310 2.8
2019-Dec-04 08:28 310 2.8
2019-Dec-04 08:23 128 2.2
2019-Dec-04 08:18 009 2.2
2019-Dec-04 08:13 010 1.7
2019-Dec-04 08:08 010 1.7
2019-Dec-04 08:03 010 1.7
2019-Dec-04 07:58 010 1.7
2019-Dec-04 07:53 010 1.1
2019-Dec-04 07:48 010 1.1
2019-Dec-04 07:44 010 1.1
2019-Dec-04 07:38 010 1.1
2019-Dec-04 07:33 010 1.1
2019-Dec-04 07:28 010 1.1
2019-Dec-04 07:23 010 1.1
2019-Dec-04 07:18 010 1.1
2019-Dec-04 07:13 010 1.1
2019-Dec-04 07:08 010 1.1
2019-Dec-04 07:03 010 1.1
2019-Dec-04 06:58 010 1.1
2019-Dec-04 06:53 010 1.1
2019-Dec-04 06:48 010 1.1
2019-Dec-04 06:43 010 1.1
2019-Dec-04 06:38 010 1.1
2019-Dec-04 06:34 010 1.1
2019-Dec-04 06:28 010 1.1
2019-Dec-04 06:23 010 1.1
2019-Dec-04 06:19 010 1.1
2019-Dec-04 06:13 010 1.1
2019-Dec-04 06:08 010 1.1
2019-Dec-04 06:04 010 1.1
2019-Dec-04 05:58 010 1.1
2019-Dec-04 05:53 010 1.1
2019-Dec-04 05:49 010 1.1
2019-Dec-04 05:43 010 1.1
2019-Dec-04 05:38 010 1.7
2019-Dec-04 05:34 010 1.7
2019-Dec-04 05:28 010 1.7
2019-Dec-04 05:23 010 1.7
2019-Dec-04 05:18 010 1.7
2019-Dec-04 05:13 010 1.7
2019-Dec-04 05:08 010 1.7
2019-Dec-04 05:03 010 1.7
2019-Dec-04 04:58 010 1.7
2019-Dec-04 04:53 010 1.7
2019-Dec-04 04:48 010 1.7
2019-Dec-04 04:43 010 1.7
2019-Dec-04 04:38 010 1.7
2019-Dec-04 04:33 010 1.7
2019-Dec-04 04:28 010 1.7
2019-Dec-04 04:23 010 1.7
2019-Dec-04 04:18 010 1.7
2019-Dec-04 04:13 010 1.7
2019-Dec-04 04:08 010 1.7
2019-Dec-04 04:03 010 1.7
2019-Dec-04 03:58 010 1.7
2019-Dec-04 03:53 010 1.7
2019-Dec-04 03:48 010 1.7
2019-Dec-04 03:43 010 1.7
2019-Dec-04 03:38 010 1.7
2019-Dec-04 03:33 010 1.7
2019-Dec-04 03:28 010 1.7
2019-Dec-04 03:23 010 1.7
2019-Dec-04 03:18 010 1.7
2019-Dec-04 03:13 010 1.7
2019-Dec-04 03:08 010 1.7
2019-Dec-04 03:03 010 1.7